Location: Amsterdam
(30.7274°N, 84.4357°W)
Time: 08:54:25
(UTC+00:00)

MOZHAYETS 4 - Pass Details

Date: 18 March 2026
Orbit: 642 x 659 km, 98.3° (Epoch: 19 April)

Event Time Altitude Azimuth Distance (km) Brightness Sun altitude
Rises 09:44:04 0° 129° (SE) 2,977 11.5 -26.3°
Reaches altitude 10° 09:46:54 10° 110° (ESE) 2,069 10.9 -25.7°
Maximum altitude 09:49:52 18° 69° (ENE) 1,629 10.6 -25.1°
Drops below altitude 10° 09:52:50 10° 28° (NNE) 2,074 10.8 -24.5°
Sets 09:55:40 0° 9° (N) 2,987 11.4 -23.9°
